This is the latest recevied weather packets stored in our database for station/object W6DSP. If no packets are shown the sender has not sent any weather packets the latest 1 day(s).
| Time | Temp. | Humidity | Pressure | Rain* | Wind** | Luminosity | Snow |
|---|---|---|---|---|---|---|---|
| 1778104069 | 14.44° C | 48% | 1013.8 hPa | 0 mm | - | - | - |
| 1778102680 | 13.89° C | 51% | 1013.8 hPa | 0 mm | - | - | - |
| 1778101921 | 13.89° C | 44% | 1013.9 hPa | 0 mm | - | - | - |
| 1778101214 | 13.89° C | 55% | 1014.1 hPa | 0 mm | - | - | - |
| 1778099050 | 13.89° C | 45% | 1014 hPa | 0 mm | - | - | - |
| 1778096184 | 13.33° C | 43% | 1014.6 hPa | 0 mm | - | - | - |
| 1778095426 | 13.89° C | 46% | 1014.6 hPa | 0 mm | - | - | - |
| 1778094671 | 13.33° C | 47% | 1014.7 hPa | 0 mm | - | - | - |
| 1778093940 | 13.33° C | 54% | 1014.6 hPa | 0 mm | - | - | - |
| 1778092513 | 12.78° C | 48% | 1014.6 hPa | 0 mm | - | - | - |
| 1778091760 | 12.78° C | 47% | 1014.5 hPa | 0 mm | - | - | - |
| 1778089562 | 12.78° C | 51% | 1014.6 hPa | 0 mm | - | - | - |
| 1778087399 | 12.78° C | 44% | 1014.3 hPa | 0 mm | - | - | - |
| 1778085914 | 13.33° C | 44% | 1014.3 hPa | 0 mm | - | - | - |
| 1778082351 | 12.78° C | 50% | 1014.7 hPa | 0 mm | - | - | - |
| 1778080218 | 12.22° C | 45% | 1014.6 hPa | 0 mm | - | - | - |
| 1778079483 | 12.78° C | 53% | 1014.5 hPa | 0 mm | - | - | - |
| 1778076619 | 11.11° C | 51% | 1014 hPa | 0 mm | - | - | - |
| 1778073720 | 9.44° C | 64% | 1013.5 hPa | 0 mm | - | - | - |
| 1778072296 | 8.89° C | 65% | 1013.4 hPa | 0 mm | - | - | - |
| 1778068643 | 7.22° C | 90% | 1012.7 hPa | 0 mm | - | - | - |
| 1778067219 | 6.67° C | 91% | 1012.2 hPa | 0 mm | - | - | - |
| 1778066498 | 6.67° C | 91% | 1012.2 hPa | 0 mm | - | - | - |
| 1778062092 | 7.78° C | 91% | 1010.9 hPa | 0 mm | - | - | - |
| 1778061349 | 7.78° C | 91% | 1010.8 hPa | 0 mm | - | - | - |
* Rain latest hour (hover to see other rain measurements)
** Current wind speed in m/s (hover to see current wind gust speed)